Terug naar catalogus

COSMOS 2251 DEB

ActiefLEO
NORAD 33911·DEBRIS·🇷🇺 Russia

Gelanceerd Jun 16, 1993 vanaf Plesetsk Cosmodrome

Loading…

Volgende Passages (komende 24 uur)

TLE

VersSource: Space-Track

Epoch: Sep 13, 2026, 15:54 UTC

1 33911U 93036DQ  26256.66262073  .00008345  00000-0  10760-2 0  9997
2 33911  74.0914 343.4414 0010612 213.8932 274.2887 14.81121818927073

Volg COSMOS 2251 DEB in realtime met AllMySat

Download on the App Store